Wind_Speed
2 1 1 1 1 1 1 2 2 2 3 4 3 3 3 3 3 3 3 3 3 3 3 4 3 3 3 4 5 6 7 7 7 8 8 7 7 7 7 7 7 7 7
2 1 1 0 1 1 1 2 2 3 3 4 4 4 4 4 4 4 4 3 3 4 4 4 4 4 4 4 5 6 7 8 8 9 9 9 9 8 8 8 8 8 8
2 1 1 1 0 1 1 2 3 3 4 4 4 4 4 4 4 4 4 4 4 4 4 4 4 4 4 4 5 6 7 8 8 9 9 9 9 10 9 9 10 9 9
3 2 1 1 0 1 2 3 3 3 3 4 5 5 5 5 5 5 5 5 5 4 4 4 5 4 4 5 5 5 6 7 8 9 9 9 10 10 10 10 10 10 10
4 3 3 2 1 1 2 2 3 3 3 4 5 5 5 6 6 6 6 6 5 5 4 4 5 5 5 4 4 5 6 6 7 8 8 9 10 10 10 11 10 11 10
5 4 3 2 2 1 1 2 3 3 4 5 5 6 6 6 6 6 6 6 5 5 5 5 5 5 5 5 4 5 6 6 7 7 8 9 9 10 10 11 11 11 11
6 5 4 3 2 1 1 2 2 3 4 5 6 6 6 6 6 6 5 5 5 6 6 5 5 5 5 5 5 5 6 6 7 7 8 9 9 9 10 11 11 11 11
6 5 5 4 2 1 1 1 2 3 5 5 6 6 6 6 6 6 6 5 5 6 6 5 5 5 5 5 5 5 5 6 7 7 8 8 8 9 9 10 10 11 11
6 5 4 3 2 2 1 0 1 3 5 5 6 6 6 6 6 6 6 6 6 6 6 5 4 4 4 5 5 5 5 6 7 7 8 8 8 9 9 9 10 10 10
6 5 5 3 2 2 1 0 1 3 4 5 5 6 6 6 6 6 6 6 6 6 5 5 4 4 4 4 4 4 5 6 6 6 7 7 8 8 8 9 9 9 10
6 5 4 4 3 2 1 0 1 3 4 5 5 6 7 7 6 6 7 7 7 6 5 5 4 4 4 3 3 4 4 5 5 6 6 7 8 8 7 8 8 9 9
6 5 4 3 2 2 1 0 1 3 4 5 6 6 7 6 6 7 7 7 7 6 5 5 4 4 3 3 3 3 3 4 4 5 5 6 7 7 7 7 8 8 8
6 5 4 3 2 1 1 1 1 3 4 5 6 6 7 7 7 7 8 7 7 6 6 5 4 4 3 2 2 2 2 3 3 4 4 4 5 6 6 7 7 7 7
6 5 4 3 3 2 1 1 2 3 4 5 6 6 7 7 7 8 8 8 7 6 6 5 4 4 3 2 1 1 2 3 3 3 4 4 4 5 5 6 7 7 7
7 6 4 4 3 2 1 1 2 3 4 5 6 6 7 8 8 8 8 7 7 6 6 5 4 4 4 2 1 1 1 1 2 2 3 3 3 4 4 5 6 6 7
7 6 5 4 3 2 1 1 2 3 4 5 6 6 7 8 8 8 8 7 7 6 6 5 5 4 4 3 2 1 0 1 2 2 3 3 3 3 4 4 5 6 6
7 6 5 4 3 2 2 2 2 3 4 5 5 6 6 7 7 8 8 8 7 7 6 6 5 4 4 3 2 1 0 1 1 2 2 3 3 3 4 4 5 6 6
8 6 5 4 3 3 2 2 3 3 4 5 5 6 6 7 7 7 8 8 7 7 6 6 5 5 4 3 2 2 1 0 1 1 2 2 3 3 3 4 5 5 6
8 7 6 5 4 4 3 3 3 4 4 4 5 5 6 6 6 7 7 8 7 7 7 6 6 5 4 3 2 2 1 1 0 0 1 2 2 3 4 4 5 5 6
8 7 7 6 5 4 4 3 3 3 3 4 4 5 5 5 6 7 7 7 7 7 7 6 5 5 5 4 3 2 2 1 1 1 0 0 1 2 3 3 4 5 6
8 8 7 6 5 4 4 3 3 3 3 3 4 5 5 5 5 6 6 6 7 6 6 6 5 5 5 4 3 3 2 1 1 1 0 0 0 1 2 3 4 4 5
8 7 6 6 5 5 4 3 3 3 2 3 3 4 5 5 5 5 5 6 6 6 5 5 5 5 5 4 4 3 2 1 1 1 1 0 0 1 2 3 3 4 4
8 7 6 6 6 5 4 3 4 3 2 2 3 4 4 4 4 4 4 5 5 5 5 5 4 4 4 4 3 3 2 2 2 2 1 1 1 1 1 2 3 3 4
8 8 7 6 6 5 4 4 4 4 3 3 3 4 4 4 4 4 4 5 5 5 4 4 4 4 4 4 3 3 2 2 1 1 1 1 1 1 1 2 3 3 4
8 8 7 7 6 5 5 5 5 5 4 3 3 3 4 4 4 4 4 4 5 5 4 4 3 3 3 3 3 3 3 2 2 2 2 2 2 2 2 3 4 4 5
9 8 7 7 7 6 5 5 5 5 5 5 4 4 4 4 4 4 4 4 4 4 4 4 4 4 4 4 4 3 3 3 3 2 2 2 3 3 4 4 5 5 6
Wind_Direction
173 143 94 73 60 78 71 51 38 25 17 18 14 11 358 350 342 333 319 313 307 296 281 275 267 247 247 242 233 232 232 230 224 222 222 223 220 214 210 209 209 206 204
192 181 171 88 24 53 64 41 17 17 17 15 15 12 1 352 342 334 328 315 308 298 281 273 265 253 255 252 241 236 235 233 228 227 225 223 223 221 219 217 213 214 211
208 203 186 194 42 50 46 20 12 14 10 12 9 4 0 356 351 344 338 328 316 304 288 278 265 261 259 261 251 241 238 232 228 227 224 222 222 224 224 221 219 218 216
220 215 217 213 253 5 12 7 6 5 360 359 357 355 353 355 354 347 339 331 322 310 295 285 271 268 265 266 261 248 242 235 229 227 226 223 224 225 226 224 222 220 219
229 227 240 246 252 312 346 0 5 7 2 353 352 354 352 348 346 343 338 334 329 318 302 293 283 276 269 262 257 251 245 240 233 227 226 227 227 227 228 228 226 224 224
235 236 241 243 265 295 341 360 9 3 356 353 351 350 351 350 346 343 337 335 334 327 313 300 289 283 274 264 256 260 252 244 236 231 229 228 226 227 229 229 227 225 224
236 235 235 242 250 252 329 350 4 2 357 355 352 349 349 350 348 344 341 337 333 330 322 307 294 285 278 268 263 263 251 244 238 233 230 226 226 230 228 229 229 226 224
229 236 238 243 248 241 290 329 358 355 353 352 351 351 350 351 350 350 349 345 337 331 323 313 299 286 276 268 264 259 248 245 240 234 230 227 228 231 228 229 230 230 230
224 234 234 231 234 241 253 286 356 356 353 351 350 351 351 353 352 351 352 349 342 334 327 321 309 291 276 263 261 256 250 244 238 236 231 227 227 227 228 229 229 229 228
224 226 225 225 224 220 227 279 1 357 355 354 353 354 352 351 351 355 353 348 342 336 331 328 320 307 289 277 261 256 255 245 243 239 232 228 228 226 227 227 226 227 228
228 222 210 210 218 220 215 269 10 2 1 0 357 355 353 351 350 352 354 351 348 345 341 338 331 324 310 288 271 257 255 248 239 238 234 232 229 225 227 228 226 226 230
228 224 213 211 213 207 211 246 359 2 359 360 357 353 353 353 351 350 353 353 351 350 346 343 338 330 322 294 273 258 253 244 240 239 233 231 227 223 223 221 222 227 229
225 222 218 223 223 210 220 290 341 355 354 356 355 355 355 356 355 352 353 354 352 351 351 349 347 343 329 308 282 254 249 236 236 235 229 225 219 219 219 217 217 221 223
222 213 219 226 225 237 259 309 342 352 354 355 354 354 356 358 357 356 354 352 351 350 350 350 354 354 354 344 315 255 251 230 231 225 217 216 212 214 215 212 212 212 216
224 213 221 223 226 229 253 312 335 353 356 355 352 353 357 360 1 3 1 357 354 355 357 358 358 356 360 3 352 315 238 210 214 224 208 202 203 205 206 206 207 212 216
219 215 219 219 226 227 265 305 328 351 355 355 353 355 358 0 3 5 5 5 2 2 3 3 4 5 1 1 358 354 172 219 213 199 205 207 203 200 200 194 201 206 211
218 218 214 222 223 234 259 304 331 346 356 355 353 355 357 359 4 8 8 9 9 9 9 8 7 5 2 3 6 8 8 251 226 205 203 205 200 198 204 203 202 207 209
220 217 216 220 225 240 258 289 324 335 348 355 356 358 359 1 5 9 12 12 12 12 11 10 12 11 11 14 19 17 20 49 221 199 204 206 206 202 212 215 209 211 211
220 217 218 223 231 244 260 281 309 325 338 354 360 1 2 7 10 13 15 14 11 11 11 11 14 17 21 23 21 13 23 42 53 278 206 212 217 221 229 228 224 219 218
221 219 219 222 228 245 261 274 293 320 336 356 3 3 4 9 13 15 17 14 13 13 13 15 19 20 22 25 22 16 24 29 13 19 145 199 218 222 229 228 223 223 224
218 219 219 221 228 240 254 268 287 307 331 353 2 2 1 4 11 11 11 14 15 15 17 19 22 24 26 29 28 25 25 23 3 6 40 78 196 216 230 232 225 225 225
215 218 222 223 226 238 252 262 280 296 318 345 354 354 354 357 4 6 7 11 15 16 16 18 21 26 28 27 28 29 26 21 16 12 15 11 279 247 236 238 242 238 235
215 218 222 226 230 241 254 263 275 286 297 324 339 340 344 350 357 3 5 6 8 10 12 16 16 17 21 21 19 18 14 12 4 6 10 339 299 281 248 237 239 245 254
215 219 224 230 235 246 258 267 269 273 282 307 325 331 342 347 348 354 359 1 6 8 9 14 12 10 11 8 4 5 8 7 350 342 353 333 306 315 282 263 250 257 273
216 222 225 230 237 246 255 265 269 266 268 288 307 317 330 336 338 343 354 358 3 4 4 6 4 0 357 351 349 342 339 330 321 328 323 308 296 287 281 277 273 272 281
218 223 227 232 238 246 254 264 267 265 265 275 288 301 314 320 324 328 338 344 348 350 349 348 347 342 340 336 330 320 312 305 302 299 295 292 292 286 285 289 284 284 287
Height
5887 5887 5887 5887 5887 5887 5886 5886 5886 5885 5885 5884 5884 5883 5882 5881 5881 5880 5880 5879 5879 5879 5879 5879 5878 5878 5879 5879 5879 5879 5880 5881 5881 5882 5883 5884 5885 5886 5888 5889 5890 5892 5893
5887 5887 5887 5887 5887 5887 5886 5886 5886 5885 5885 5884 5884 5883 5882 5881 5880 5880 5879 5879 5878 5878 5878 5878 5878 5878 5878 5878 5878 5878 5878 5879 5880 5881 5882 5883 5884 5886 5887 5888 5890 5891 5892
5887 5887 5887 5887 5887 5887 5886 5886 5886 5885 5885 5884 5883 5883 5882 5881 5880 5879 5879 5878 5878 5877 5877 5877 5877 5877 5877 5877 5877 5877 5877 5878 5879 5880 5881 5882 5883 5885 5886 5887 5889 5890 5891
5887 5887 5887 5887 5887 5886 5886 5886 5886 5885 5885 5884 5883 5882 5882 5881 5880 5879 5878 5878 5877 5876 5876 5876 5876 5876 5876 5876 5876 5876 5876 5877 5877 5878 5879 5881 5882 5883 5885 5886 5888 5889 5891
5886 5886 5887 5886 5886 5886 5886 5886 5886 5885 5885 5884 5883 5882 5881 5881 5880 5879 5878 5877 5876 5876 5875 5875 5875 5875 5875 5875 5875 5875 5875 5876 5876 5877 5878 5879 5881 5882 5884 5885 5887 5888 5890
5886 5886 5886 5886 5886 5886 5886 5886 5885 5885 5884 5884 5883 5882 5881 5880 5879 5878 5877 5876 5876 5875 5874 5874 5874 5874 5874 5874 5874 5874 5874 5874 5875 5876 5877 5878 5879 5881 5882 5884 5885 5887 5888
5885 5886 5886 5886 5886 5886 5886 5886 5885 5885 5884 5884 5883 5882 5881 5880 5879 5878 5877 5876 5875 5874 5874 5873 5873 5873 5873 5873 5873 5873 5873 5873 5874 5875 5876 5877 5878 5880 5881 5883 5884 5885 5887
5885 5885 5885 5885 5885 5885 5886 5886 5885 5885 5884 5884 5883 5882 5880 5879 5878 5877 5876 5875 5874 5873 5873 5872 5872 5872 5872 5872 5872 5872 5872 5872 5873 5874 5875 5876 5877 5878 5880 5881 5883 5884 5885
5884 5884 5885 5885 5885 5885 5885 5885 5885 5885 5884 5883 5883 5881 5880 5879 5878 5877 5875 5874 5874 5873 5872 5871 5871 5871 5871 5871 5871 5871 5871 5871 5872 5873 5874 5875 5876 5877 5878 5880 5881 5883 5884
5883 5884 5884 5884 5885 5885 5885 5885 5885 5885 5884 5883 5882 5881 5880 5879 5878 5876 5875 5874 5873 5872 5871 5871 5870 5870 5870 5870 5870 5870 5870 5870 5871 5872 5873 5874 5875 5876 5877 5878 5880 5881 5882
5882 5883 5883 5884 5884 5884 5885 5885 5885 5884 5884 5883 5882 5881 5880 5879 5877 5876 5875 5874 5873 5872 5871 5870 5870 5869 5869 5869 5869 5869 5869 5870 5870 5871 5872 5873 5874 5875 5876 5877 5878 5880 5881
5882 5882 5883 5883 5884 5884 5884 5884 5884 5884 5884 5883 5882 5881 5880 5879 5877 5876 5875 5873 5872 5871 5870 5870 5869 5869 5868 5868 5868 5868 5868 5869 5870 5870 5871 5871 5872 5874 5875 5876 5877 5879 5880
5881 5882 5883 5883 5884 5884 5884 5884 5884 5884 5883 5883 5882 5881 5880 5879 5877 5876 5875 5873 5872 5871 5870 5869 5869 5868 5868 5868 5868 5868 5867 5868 5869 5869 5870 5871 5872 5873 5874 5875 5876 5878 5879
5880 5881 5882 5883 5884 5884 5884 5884 5884 5884 5883 5882 5882 5881 5880 5878 5877 5876 5874 5873 5872 5870 5869 5869 5868 5868 5867 5867 5867 5867 5867 5868 5869 5869 5870 5870 5871 5872 5873 5874 5876 5877 5879
5880 5881 5882 5883 5883 5884 5884 5884 5884 5883 5883 5882 5882 5881 5880 5878 5877 5875 5874 5872 5871 5870 5869 5868 5868 5867 5867 5867 5867 5867 5867 5868 5868 5869 5870 5870 5871 5872 5873 5874 5875 5877 5878
5879 5880 5881 5882 5883 5884 5884 5884 5884 5883 5883 5882 5881 5880 5879 5878 5877 5875 5874 5872 5871 5870 5869 5868 5868 5867 5867 5867 5867 5867 5867 5868 5868 5869 5870 5871 5872 5872 5873 5874 5875 5876 5878
5878 5880 5881 5882 5883 5883 5884 5884 5883 5883 5883 5882 5881 5880 5879 5878 5877 5875 5874 5873 5871 5870 5869 5868 5867 5867 5867 5867 5867 5867 5867 5868 5869 5869 5870 5871 5872 5873 5873 5874 5875 5876 5877
5878 5879 5881 5882 5882 5883 5883 5884 5883 5883 5883 5882 5881 5880 5879 5878 5877 5875 5874 5873 5871 5870 5869 5868 5868 5867 5867 5867 5867 5867 5868 5868 5869 5870 5871 5871 5872 5873 5874 5874 5875 5876 5877
5877 5879 5880 5881 5882 5882 5883 5883 5883 5883 5882 5882 5881 5880 5879 5878 5877 5875 5874 5873 5872 5871 5870 5869 5868 5868 5867 5867 5867 5868 5868 5868 5869 5870 5871 5871 5872 5873 5874 5875 5875 5876 5877
5876 5878 5879 5880 5881 5882 5882 5883 5883 5882 5882 5881 5881 5880 5879 5878 5877 5876 5874 5873 5872 5871 5870 5869 5869 5868 5868 5868 5868 5868 5868 5869 5869 5870 5871 5871 5872 5873 5874 5874 5875 5876 5877
5875 5876 5878 5879 5880 5881 5882 5882 5882 5882 5882 5881 5880 5880 5879 5878 5877 5876 5875 5874 5872 5871 5870 5870 5869 5869 5869 5869 5869 5869 5869 5869 5870 5870 5871 5871 5872 5873 5873 5874 5875 5875 5876
5874 5875 5877 5878 5879 5880 5881 5881 5882 5882 5881 5881 5880 5880 5879 5878 5877 5876 5875 5874 5873 5872 5871 5870 5870 5869 5869 5869 5869 5869 5869 5870 5870 5871 5871 5872 5872 5873 5873 5874 5874 5875 5876
5873 5874 5876 5877 5878 5879 5880 5880 5881 5881 5881 5880 5880 5879 5878 5878 5877 5876 5875 5874 5873 5872 5871 5871 5870 5870 5870 5870 5870 5870 5870 5870 5871 5871 5872 5872 5873 5873 5873 5874 5875 5875 5876
5872 5873 5875 5876 5877 5878 5879 5879 5880 5880 5880 5880 5879 5879 5878 5877 5876 5875 5874 5874 5873 5872 5871 5871 5871 5870 5870 5870 5870 5870 5870 5871 5871 5872 5872 5872 5872 5873 5873 5874 5874 5875 5875
5871 5872 5874 5875 5876 5877 5878 5878 5879 5879 5879 5879 5879 5878 5878 5877 5876 5875 5874 5874 5873 5872 5872 5871 5871 5871 5870 5870 5870 5870 5870 5871 5871 5871 5872 5872 5872 5873 5873 5873 5874 5874 5874
5869 5871 5872 5874 5875 5875 5876 5877 5877 5877 5878 5878 5878 5877 5877 5876 5876 5875 5874 5874 5873 5872 5872 5871 5871 5871 5871 5870 5870 5870 5870 5870 5870 5871 5871 5872 5872 5872 5872 5873 5873 5873 5873